203  
ASUS41 KPHI 262213  
RWRPHI  
 
REGIONAL WEATHER ROUNDUP  
NATIONAL WEATHER SERVICE MOUNT HOLLY NJ  
600 PM EDT WED JUL 26 2017  
 
NOTE: "FAIR" INDICATES FEW OR NO CLOUDS BELOW 12,000 FEET WITH NO  
SIGNIFICANT WEATHER AND/OR S TO VISIBILITY
.  
 
* = STATION DOES NOT REPORT PRECIPITATION (E.G. RAIN, SNOW, ETC.)  
OR FOG.
 
 
NJZ015>026-262300-  
SOUTHERN NEW JERSEY  
 
CITY SKY/WX TMP DP RH WIND PRES REMARKS
 
POMONA PTSUNNY 72 61 68 E10G21 30.16F  
WILDWOOD* PTSUNNY 73 62 68 E10 30.16F  
MILLVILLE FAIR 74 64 71 SE8 30.14F  
WRIGHTSTOWN FAIR 73 61 65 SE6 30.12F  
MOUNT HOLLY PTSUNNY 75 62 64 VRB7 30.14F  
TRENTON FAIR 76 62 62 E9 30.14F  
 

 
NJZ001>014-262300-  
NORTHERN NEW JERSEY  
 
CITY SKY/WX TMP DP RH WIND PRES REMARKS
 
SUSSEX FAIR 74 62 66 CALM 30.14F  
ANDOVER* N/A 74 61 63 CALM 30.15F  
MORRISTOWN PTSUNNY 75 54 46 S7 30.15F  
NEWARK PTSUNNY 75 52 44 SE9 30.15F  
TETERBORO FAIR 75 55 49 S8 30.14F  
CALDWELL CLOUDY 75 54 47 S9 30.15F  
SOMERVILLE FAIR 77 61 57 SE3 30.13F  
ALLAIRE* FAIR 71 59 65 E7 30.18F  
TOMS RIVER* FAIR 73 61 65 SE7 30.17F  
 

 
PAZ043-044-047-054-055-060>062-066>071-262300-  
EASTERN PENNSYLVANIA  
 
CITY SKY/WX TMP DP RH WIND PRES REMARKS
 
PHILADELPHIA PTSUNNY 78 63 59 SE12 30.14F  
NORTH PHILA FAIR 77 61 57 SE8 30.15F  
BLUE BELL* PTSUNNY 73 63 68 SE6 30.15F  
DOYLESTOWN FAIR 74 62 66 CALM 30.14F  
QUAKERTOWN* PTSUNNY 75 63 64 SE6 30.15F  
PERKASIE* MOCLDY 75 63 64 E6 30.16S  
POTTSTOWN CLOUDY 75 61 61 E3 30.15F  
LANCASTER PTSUNNY 77 67 71 E8 30.12F  
COATESVILLE PTSUNNY 75 64 69 SE5 30.16F  
READING FAIR 78 66 66 VRB7 30.11F  
ALLENTOWN PTSUNNY 77 61 57 S6 30.13F  
MOUNT POCONO PTSUNNY 68 61 78 S7 30.18S  
HAZLETON N/A 72 61 68 S3 30.19F  
LEHIGHTON FAIR 77 61 57 S3 30.14F  
WILKES BARRE FAIR 75 61 61 S6 30.13F  
 

 
DEZALL-MDZ008-012-015-019-020-262300-  
DELAWARE AND EASTERN MARYLAND  
 
CITY SKY/WX TMP DP RH WIND PRES REMARKS
 
WILMINGTON PTSUNNY 78 66 66 S10 30.14F  
DOVER FAIR 75 75 100 SE10 30.13F  
GEORGETOWN FAIR 76 63 64 E9 30.15F  
EASTON PTSUNNY 79 66 65 SE7 30.16F  
ABERDEEN MOSUNNY 79 64 61 SE6 30.13F  
PATUXENT FAIR 78 64 61 S8 30.11F  
OCEAN CITY PTSUNNY 74 64 71 E7 30.15F  
WALLOPS ISLAND CLOUDY 74 67 78 E8 30.14F  
CAMBRIDGE PTSUNNY 77 66 69 SE12 30.12F  
SALISBURY CLOUDY 74 65 73 E8 30.14F  
 

 
PAZ001-021-NYZ056-072-MDZ011-DCZ001-262300-  
OTHER NEARBY LOCATIONS  
 
CITY SKY/WX TMP DP RH WIND PRES REMARKS
 
HARRISBURG FAIR 79 65 62 S6 30.10F  
STATE COLLEGE MOSUNNY 75 59 57 S7 30.13F  
WILLIAMSPORT FAIR 79 60 52 S7 30.08F  
BINGHAMTON FAIR 70 60 70 S6 30.13F  
NEW YORK CITY FAIR 73 54 51 VRB5 30.19F  
BALTIMORE PTSUNNY 80 66 62 SE7 30.11F  
WASHINGTON DC FAIR 85 62 46 S8 30.10F  
 

 
 
 
CLICK HERE TO GO TO PREVIOUS BULLETINS.

The Nexlab PA Page
The Nexlab NJ Page
The Nexlab DE Page
The Nexlab MD Page Main Text Page